STARLINK-34523

Last updated on Thu Jul 03 2025 00:02:07 GMT+0000 (Coordinated Universal Time)

1 64475U 25133D 25183.58335648 -.01045185 00000+0 -51777-2 0 9995 2 64475 53.1556 210.8420 0000972 64.4363 277.9916 15.83892233 2708
UTC large
Height (km)
Speed (km/s)
/
Latitude / Longitude
Inclination (degrees)
Orbital Period (minutes)
Azimuth
Elevation
Range (km)
Doppler Factor

Next 0 passes for location: London (51.5072 / 0.1276)

Sorry there are no passes over London.